NOAA NWS Hourly Roundups by Site

Regional Weather Roundup for Omaha, NE

To Select Another Site Choose from List

Select Site:  

000
ASUS43 KOAX 281813
RWRNE

WEATHER ROUNDUP FOR NEBRASKA
NATIONAL WEATHER SERVICE OMAHA NE
1200 PM CST MON NOV 28 2022

NOTES: SATELLITE DATA IS BEING USED TO AUGMENT CLOUD COVER ABOVE
       12000 FEET.
       "FAIR" INDICATES FEW OR NO CLOUDS BELOW 12,000 FEET WITH NO
       SIGNIFICANT WEATHER AND/OR OBSTRUCTIONS TO VISIBILITY.


NEZ001>004-019>022-054>056-281900-
NEBRASKA PANHANDLE

CITY           SKY/WX    TMP DP  RH WIND       PRES   REMARKS
SCOTTSBLUFF    CLOUDY    47  19  33 N5        29.58F
6HR MIN TEMP:  29; 6HR MAX TEMP:  47;

ALLIANCE       PTSUNNY   43  19  38 N12       29.59S
6HR MIN TEMP:  24; 6HR MAX TEMP:  43;

CHADRON        PTSUNNY   37  17  44 NE12      29.66S WCI  29
6HR MIN TEMP:  13; 6HR MAX TEMP:  37;

GORDON         PTSUNNY   36  16  44 NE14      29.64F WCI  27
6HR MIN TEMP:  20; 6HR MAX TEMP:  36;

KIMBALL        PTSUNNY   45  15  29 S7        29.58F
SIDNEY         PTSUNNY   51  16  24 SW8       29.56F
6HR MIN TEMP:  26; 6HR MAX TEMP:  51;

$$

NEZ057>060-069>072-079>082-281900-
SOUTHWEST NEBRASKA

CITY           SKY/WX    TMP DP  RH WIND       PRES   REMARKS
NORTH PLATTE   MOSUNNY   51  26  37 CALM      29.61F
6HR MIN TEMP:  18; 6HR MAX TEMP:  51;

GRANT          FAIR      57  14  18 S7        29.58F
IMPERIAL       SUNNY     57  28  33 SE12      29.59F
6HR MIN TEMP:  24; 6HR MAX TEMP:  57;

LEXINGTON      MOSUNNY   46  31  56 E3        29.64F
MCCOOK         SUNNY     47  31  53 SE7       29.61F
6HR MIN TEMP:  21; 6HR MAX TEMP:  47;

OGALLALA       PTSUNNY   53  24  32 CALM      29.60F
$$

NEZ005>010-023>029-035>040-094-281900-
NORTH CENTRAL NEBRASKA

CITY           SKY/WX    TMP DP  RH WIND       PRES   REMARKS
VALENTINE      MOSUNNY   41  17  38 N10G20    29.65S
6HR MIN TEMP:  30; 6HR MAX TEMP:  42;

AINSWORTH      MOSUNNY   42  17  36 N16       29.64S
BROKEN BOW     SUNNY     52  22  30 W8        29.62F
6HR MIN TEMP:  25; 6HR MAX TEMP:  52;

O`NEILL        PTSUNNY   45  24  44 NW16      29.63S
ORD            SUNNY     52  26  36 CALM      29.63F
6HR MIN TEMP:  25; 6HR MAX TEMP:  53;

THEDFORD       CLOUDY    43  21  41 N8        29.62F
$$

NEZ041-046>049-061>064-073>077-083>087-281900-
SOUTH CENTRAL NEBRASKA

CITY           SKY/WX    TMP DP  RH WIND       PRES   REMARKS
GRAND ISLAND   SUNNY     52  28  39 SW12      29.68F
6HR MIN TEMP:  30; 6HR MAX TEMP:  52;

AURORA         SUNNY     50  30  45 SW16      29.68F
HASTINGS       SUNNY     48  29  47 SW10G23   29.67F
6HR MIN TEMP:  27; 6HR MAX TEMP:  48;

HEBRON         SUNNY     48  28  46 SW14G21   29.72F
HOLDREGE       SUNNY     45  27  49 S9        29.64F
KEARNEY        SUNNY     48  28  46 S8        29.66F
YORK           SUNNY     50  28  43 SW16G23   29.68F
$$

NEZ011>018-030>034-042>045-281900-
NORTHEAST NEBRASKA

CITY           SKY/WX    TMP DP  RH WIND       PRES   REMARKS
NORFOLK        MOSUNNY   50  26  39 SW13      29.62F
6HR MIN TEMP:  29; 6HR MAX TEMP:  50;

ALBION         SUNNY     50  28  43 SW9       29.63F
BLAIR          PTSUNNY   46  26  46 SW20      29.69F
COLUMBUS       SUNNY     51  29  42 SW18      29.68F
FREMONT        MOSUNNY   48  29  46 SW13G23   29.70F
TEKAMAH        MOSUNNY   49  28  44 SW21      29.68F
6HR MIN TEMP:  21; 6HR MAX TEMP:  49;

WAYNE          MOSUNNY   47  27  45 SW14      29.62F
$$

NEZ050>053-065>068-078-088>093-281900-
SOUTHEAST NEBRASKA

CITY           SKY/WX    TMP DP  RH WIND       PRES   REMARKS
LINCOLN        SUNNY     53  27  36 SW22G31   29.72F
6HR MIN TEMP:  26; 6HR MAX TEMP:  53;

OMAHA EPPLEY   PTSUNNY  N/A N/A N/A S17G25    29.72F
BEATRICE       SUNNY     50  28  42 SW17G24   29.74F
FALLS CITY     SUNNY     50  28  42 S14G23    29.78F
6HR MIN TEMP:  22; 6HR MAX TEMP:  50;

NEBRASKA CITY  SUNNY     49  27  41 SW21      29.75F
PLATTSMOUTH    MOSUNNY   50  26  39 S21G30    29.73F
$$

NEZ044-045-051>053-067-281900-
OMAHA AREA

CITY           SKY/WX    TMP DP  RH WIND       PRES   REMARKS
OMAHA EPPLEY   PTSUNNY  N/A N/A N/A S17G25    29.72F
BLAIR          PTSUNNY   46  26  46 SW20      29.69F
FREMONT        MOSUNNY   48  29  46 SW13G23   29.70F
MILLARD        MOSUNNY   50  27  39 S12G18    29.71F
OFFUTT AFB     PTSUNNY   49  26  41 S14       29.75F
PLATTSMOUTH    MOSUNNY   50  26  39 S21G30    29.73F
WAHOO          SUNNY     51  28  40 SW14G26   29.70F
$$


 

View Past Reports for Omaha, NE.

Products Courtesy of NOAA-NWS
NWS Information Parsing Script by Ken True at Saratoga Weather - Script by SE Lincoln Weather.